This is the latest recevied weather packets stored in our database for station/object OK1KZE-6. If no packets are shown the sender has not sent any weather packets the latest 10 day(s).
| Time | Temp. | Humidity | Pressure | Rain* | Wind** | Luminosity | Snow |
|---|---|---|---|---|---|---|---|
| 1777697107 | 8.33° C | 69% | 1026.8 hPa | - | - | - | - |
| 1777696508 | 9.44° C | 64% | 1026.9 hPa | - | - | - | - |
| 1777696209 | 9.44° C | 64% | 1026.7 hPa | - | - | - | - |
| 1777695909 | 9.44° C | 65% | 1026.6 hPa | - | - | - | - |
| 1777695608 | 9.44° C | 65% | 1026.7 hPa | - | - | - | - |
| 1777695308 | 8.89° C | 66% | 1026.7 hPa | - | - | - | - |
| 1777695008 | 9.44° C | 65% | 1026.6 hPa | - | - | - | - |
| 1777694708 | 9.44° C | 65% | 1026.5 hPa | - | - | - | - |
| 1777694408 | 10° C | 63% | 1026.5 hPa | - | - | - | - |
| 1777694108 | 10° C | 64% | 1026.8 hPa | - | - | - | - |
| 1777693808 | 10° C | 64% | 1026.6 hPa | - | - | - | - |
| 1777693508 | 9.44° C | 65% | 1026.6 hPa | - | - | - | - |
| 1777693208 | 10° C | 64% | 1026.6 hPa | - | - | - | - |
| 1777692908 | 10° C | 63% | 1026.6 hPa | - | - | - | - |
| 1777692608 | 10.56° C | 61% | 1026.4 hPa | - | - | - | - |
| 1777692307 | 10.56° C | 61% | 1026.6 hPa | - | - | - | - |
| 1777692007 | 10.56° C | 61% | 1026.5 hPa | - | - | - | - |
| 1777691709 | 10.56° C | 62% | 1026.4 hPa | - | - | - | - |
| 1777691408 | 10.56° C | 61% | 1026.4 hPa | - | - | - | - |
| 1777691108 | 10.56° C | 62% | 1026.3 hPa | - | - | - | - |
| 1777690810 | 10° C | 62% | 1026.6 hPa | - | - | - | - |
| 1777690508 | 10.56° C | 61% | 1026.2 hPa | - | - | - | - |
| 1777690208 | 10.56° C | 60% | 1026.4 hPa | - | - | - | - |
| 1777689909 | 11.11° C | 59% | 1026.4 hPa | - | - | - | - |
| 1777689608 | 11.11° C | 59% | 1026.2 hPa | - | - | - | - |
* Rain since midnight (hover to see other rain measurements)
** Current wind speed in m/s (hover to see current wind gust speed)